TimeCST,TemperatureF,Dew PointF,Humidity,Sea Level PressureIn,VisibilityMPH,Wind Direction,Wind SpeedMPH,Gust SpeedMPH,PrecipitationIn,Events,Conditions,WindDirDegrees,DateUTC
12:15 AM,-5.8,-10.3,81,30.18,10.0,SW,6.9,-,N/A,,Clear,220,2014-02-07 06:15:00
12:35 AM,-5.8,-10.1,82,30.17,10.0,SW,5.8,-,N/A,,Clear,230,2014-02-07 06:35:00
12:55 AM,-5.8,-10.3,81,30.16,10.0,SW,6.9,-,N/A,,Clear,230,2014-02-07 06:55:00
1:15 AM,-6.3,-10.7,82,30.16,10.0,SW,6.9,-,N/A,,Clear,230,2014-02-07 07:15:00
1:35 AM,-6.3,-10.5,82,30.16,10.0,SW,5.8,-,N/A,,Clear,230,2014-02-07 07:35:00
1:55 AM,-6.7,-11.2,81,30.16,10.0,SW,6.9,-,N/A,,Clear,230,2014-02-07 07:55:00
2:15 AM,-6.5,-10.7,82,30.16,10.0,SW,8.1,-,N/A,,Clear,230,2014-02-07 08:15:00
2:35 AM,-6.5,-11.0,81,30.16,10.0,SW,6.9,-,N/A,,Clear,230,2014-02-07 08:35:00
2:55 AM,-6.7,-11.2,81,30.15,10.0,SW,8.1,-,N/A,,Clear,220,2014-02-07 08:55:00
3:15 AM,-7.1,-11.4,81,30.15,10.0,SW,6.9,-,N/A,,Clear,220,2014-02-07 09:15:00
3:35 AM,-7.1,-11.4,81,30.15,10.0,SW,8.1,-,N/A,,Clear,220,2014-02-07 09:35:00
3:55 AM,-7.8,-12.3,81,30.14,10.0,SW,6.9,-,N/A,,Clear,220,2014-02-07 09:55:00
4:15 AM,-8.0,-12.3,81,30.14,10.0,SW,6.9,-,N/A,,Clear,220,2014-02-07 10:15:00
4:35 AM,-7.6,-12.1,81,30.14,10.0,SSW,8.1,-,N/A,,Clear,210,2014-02-07 10:35:00
4:55 AM,-7.8,-12.3,81,30.14,10.0,SW,8.1,-,N/A,,Clear,220,2014-02-07 10:55:00
5:15 AM,-8.0,-12.8,79,30.14,10.0,SW,8.1,-,N/A,,Clear,220,2014-02-07 11:15:00
5:35 AM,-8.9,-13.9,79,30.14,10.0,SW,6.9,-,N/A,,Clear,220,2014-02-07 11:35:00
5:55 AM,-8.5,-13.0,81,30.13,10.0,SSW,8.1,-,N/A,,Clear,210,2014-02-07 11:55:00
6:15 AM,-8.7,-13.4,80,30.13,10.0,SW,9.2,-,N/A,,Clear,220,2014-02-07 12:15:00
6:35 AM,-9.0,-14.1,79,30.13,10.0,SW,8.1,-,N/A,,Clear,220,2014-02-07 12:35:00
6:55 AM,-9.0,-14.1,79,30.13,10.0,SW,9.2,-,N/A,,Clear,220,2014-02-07 12:55:00
7:15 AM,-9.4,-14.3,79,30.13,10.0,SW,9.2,-,N/A,,Clear,220,2014-02-07 13:15:00
7:35 AM,-9.8,-14.8,78,30.13,10.0,SW,8.1,-,N/A,,Clear,220,2014-02-07 13:35:00
7:55 AM,-9.2,-14.1,79,30.14,10.0,SW,8.1,-,N/A,,Clear,220,2014-02-07 13:55:00
8:15 AM,-7.6,-12.5,79,30.14,10.0,SSW,9.2,-,N/A,,Clear,210,2014-02-07 14:15:00
8:35 AM,-6.5,-11.6,79,30.14,10.0,SW,9.2,-,N/A,,Clear,220,2014-02-07 14:35:00
8:55 AM,-5.4,-11.2,76,30.14,10.0,SW,9.2,-,N/A,,Clear,230,2014-02-07 14:55:00
9:15 AM,-4.2,-10.8,73,30.14,10.0,SW,9.2,-,N/A,,Clear,230,2014-02-07 15:15:00
9:35 AM,-2.4,-10.3,69,30.14,10.0,SW,11.5,-,N/A,,Clear,230,2014-02-07 15:35:00
9:55 AM,-0.8,-10.1,65,30.14,10.0,SW,12.7,-,N/A,,Clear,230,2014-02-07 15:55:00
10:15 AM,0.5,-10.3,60,30.14,10.0,SW,13.8,-,N/A,,Clear,230,2014-02-07 16:15:00
10:35 AM,1.6,-9.9,59,30.14,10.0,WSW,16.1,-,N/A,,Clear,240,2014-02-07 16:35:00
10:55 AM,2.7,-9.4,57,30.14,10.0,SW,13.8,-,N/A,,Clear,230,2014-02-07 16:55:00
11:15 AM,3.6,-9.2,55,30.14,10.0,SW,13.8,-,N/A,,Clear,230,2014-02-07 17:15:00
11:35 AM,4.1,-8.9,55,30.14,2.0,WSW,13.8,-,N/A,,Haze,240,2014-02-07 17:35:00
11:55 AM,4.8,-8.7,54,30.14,2.5,WSW,15.0,19.6,N/A,,Haze,240,2014-02-07 17:55:00
12:15 PM,5.7,-8.1,53,30.14,10.0,SW,15.0,-,N/A,,Clear,230,2014-02-07 18:15:00
12:35 PM,6.8,-8.0,51,30.13,7.0,SW,15.0,-,N/A,,Clear,230,2014-02-07 18:35:00
12:55 PM,7.7,-7.4,50,30.12,10.0,SW,12.7,-,N/A,,Clear,230,2014-02-07 18:55:00
1:15 PM,8.6,-7.1,49,30.12,10.0,WSW,12.7,17.3,N/A,,Clear,240,2014-02-07 19:15:00
1:35 PM,9.5,-6.9,48,30.12,10.0,SW,13.8,-,N/A,,Clear,230,2014-02-07 19:35:00
1:55 PM,10.2,-6.5,47,30.12,10.0,SW,13.8,-,N/A,,Clear,230,2014-02-07 19:55:00
2:15 PM,10.2,-6.2,48,30.11,10.0,SW,13.8,19.6,N/A,,Clear,230,2014-02-07 20:15:00
2:35 PM,10.8,-6.5,46,30.11,10.0,SW,16.1,-,N/A,,Clear,230,2014-02-07 20:35:00
2:55 PM,10.9,-6.3,46,30.11,10.0,SW,13.8,-,N/A,,Clear,230,2014-02-07 20:55:00
3:15 PM,11.3,-6.5,45,30.11,10.0,SW,16.1,-,N/A,,Clear,230,2014-02-07 21:15:00
3:35 PM,11.3,-6.2,46,30.11,10.0,SW,12.7,-,N/A,,Clear,230,2014-02-07 21:35:00
3:55 PM,11.3,-6.0,46,30.12,10.0,SW,16.1,-,N/A,,Clear,230,2014-02-07 21:55:00
4:15 PM,11.3,-6.0,46,30.11,10.0,SW,11.5,-,N/A,,Clear,230,2014-02-07 22:15:00
4:35 PM,10.9,-6.2,46,30.12,10.0,WSW,11.5,-,N/A,,Clear,240,2014-02-07 22:35:00
4:55 PM,9.9,-6.0,49,30.12,10.0,WSW,11.5,-,N/A,,Clear,240,2014-02-07 22:55:00
5:15 PM,8.4,-6.7,50,30.12,10.0,WSW,8.1,-,N/A,,Clear,240,2014-02-07 23:15:00
5:35 PM,7.7,-6.7,52,30.13,10.0,SW,10.4,-,N/A,,Clear,230,2014-02-07 23:35:00
5:55 PM,5.9,-7.6,54,30.14,10.0,SW,8.1,-,N/A,,Clear,230,2014-02-07 23:55:00
6:15 PM,4.5,-8.0,57,30.14,10.0,SW,5.8,-,N/A,,Clear,230,2014-02-08 00:15:00
6:35 PM,3.6,-8.9,56,30.14,10.0,SW,8.1,-,N/A,,Clear,230,2014-02-08 00:35:00
6:55 PM,3.4,-8.5,58,30.14,10.0,SW,4.6,-,N/A,,Clear,220,2014-02-08 00:55:00
7:15 PM,3.9,-7.6,59,30.14,10.0,SSW,3.5,-,N/A,,Clear,210,2014-02-08 01:15:00
7:35 PM,3.0,-7.2,62,30.14,10.0,SSW,4.6,-,N/A,,Clear,200,2014-02-08 01:35:00
7:55 PM,3.2,-6.9,63,30.14,10.0,SSW,3.5,-,N/A,,Clear,210,2014-02-08 01:55:00
8:15 PM,1.2,-7.8,66,30.14,10.0,South,3.5,-,N/A,,Clear,190,2014-02-08 02:15:00
8:35 PM,-5.8,-12.6,72,30.15,10.0,Calm,Calm,-,N/A,,Clear,0,2014-02-08 02:35:00
8:55 PM,-1.8,-9.0,71,30.15,10.0,South,3.5,-,N/A,,Clear,190,2014-02-08 02:55:00
9:15 PM,-8.0,-13.9,75,30.14,10.0,Calm,Calm,-,N/A,,Clear,0,2014-02-08 03:15:00
9:35 PM,-9.2,-14.8,76,30.14,10.0,Calm,Calm,-,N/A,,Clear,0,2014-02-08 03:35:00
9:55 PM,-11.4,-17.1,76,30.14,10.0,Calm,Calm,-,N/A,,Clear,0,2014-02-08 03:55:00
10:15 PM,-10.3,-15.0,80,30.14,10.0,Calm,Calm,-,N/A,,Clear,0,2014-02-08 04:15:00
10:35 PM,-10.7,-15.2,80,30.14,10.0,Calm,Calm,-,N/A,,Clear,0,2014-02-08 04:35:00
10:55 PM,-11.2,-15.5,81,30.14,10.0,Calm,Calm,-,N/A,,Clear,0,2014-02-08 04:55:00
11:15 PM,-11.0,-15.5,80,30.14,10.0,Calm,Calm,-,N/A,,Clear,0,2014-02-08 05:15:00
11:35 PM,-10.8,-15.2,81,30.14,10.0,Calm,Calm,-,N/A,,Clear,0,2014-02-08 05:35:00
11:55 PM,-11.6,-16.1,80,30.14,10.0,SE,3.5,-,N/A,,Clear,140,2014-02-08 05:55:00